TimeEST,TemperatureF,Dew PointF,Humidity,Sea Level PressureIn,VisibilityMPH,Wind Direction,Wind SpeedMPH,Gust SpeedMPH,PrecipitationIn,Events,Conditions,WindDirDegrees,DateUTC
12:53 AM,37.9,33.1,83,30.09,10.0,Calm,Calm,-,N/A,,Clear,0,2013-02-06 05:53:00
1:53 AM,35.1,30.9,85,30.10,10.0,Calm,Calm,-,N/A,,Clear,0,2013-02-06 06:53:00
2:53 AM,34.0,30.9,89,30.11,10.0,Calm,Calm,-,N/A,,Clear,0,2013-02-06 07:53:00
3:53 AM,33.1,28.9,85,30.12,10.0,Calm,Calm,-,N/A,,Clear,0,2013-02-06 08:53:00
4:53 AM,30.9,28.0,89,30.14,10.0,Calm,Calm,-,N/A,,Clear,0,2013-02-06 09:53:00
5:53 AM,30.9,27.0,85,30.16,10.0,Calm,Calm,-,N/A,,Clear,0,2013-02-06 10:53:00
6:53 AM,30.0,27.0,88,30.18,10.0,Calm,Calm,-,N/A,,Clear,0,2013-02-06 11:53:00
7:53 AM,30.9,28.0,89,30.22,10.0,Calm,Calm,-,N/A,,Clear,0,2013-02-06 12:53:00
8:53 AM,36.0,32.0,86,30.22,10.0,Calm,Calm,-,N/A,,Clear,0,2013-02-06 13:53:00
9:53 AM,43.0,35.1,74,30.23,10.0,Calm,Calm,-,N/A,,Clear,0,2013-02-06 14:53:00
10:53 AM,50.0,34.0,54,30.23,10.0,Variable,3.5,-,N/A,,Clear,0,2013-02-06 15:53:00
11:53 AM,53.1,33.1,47,30.24,10.0,Calm,Calm,-,N/A,,Clear,0,2013-02-06 16:53:00
12:53 PM,55.9,30.9,39,30.22,10.0,Variable,3.5,-,N/A,,Clear,0,2013-02-06 17:53:00
1:53 PM,59.0,26.1,28,30.19,10.0,Variable,3.5,-,N/A,,Clear,0,2013-02-06 18:53:00
2:53 PM,60.1,23.0,24,30.18,10.0,SSW,3.5,-,N/A,,Clear,200,2013-02-06 19:53:00
3:53 PM,61.0,26.1,26,30.17,10.0,SW,3.5,-,N/A,,Clear,220,2013-02-06 20:53:00
4:53 PM,60.1,27.0,28,30.17,10.0,SSW,4.6,-,N/A,,Clear,200,2013-02-06 21:53:00
5:53 PM,55.9,30.0,37,30.18,10.0,Calm,Calm,-,N/A,,Clear,0,2013-02-06 22:53:00
6:53 PM,51.1,30.0,44,30.18,10.0,Calm,Calm,-,N/A,,Clear,0,2013-02-06 23:53:00
7:53 PM,46.9,32.0,56,30.19,10.0,Calm,Calm,-,N/A,,Clear,0,2013-02-07 00:53:00
8:53 PM,44.1,34.0,68,30.21,10.0,Calm,Calm,-,N/A,,Clear,0,2013-02-07 01:53:00
9:53 PM,42.1,33.1,70,30.20,10.0,Calm,Calm,-,N/A,,Clear,0,2013-02-07 02:53:00
10:53 PM,42.1,33.1,70,30.18,10.0,Calm,Calm,-,N/A,,Clear,0,2013-02-07 03:53:00
11:53 PM,41.0,32.0,70,30.19,10.0,Calm,Calm,-,N/A,,Clear,0,2013-02-07 04:53:00